Regional Weather Roundup
Issued by NWS Charleston, WV

Home | Current Version | Previous Version | Text Only | Print | Product List | Glossary On
Versions: 1 2 3 4 5 6 7 8 9 10 11 12 13 14 15 16 17 18 19 20 21 22 23 24 25 26 27 28 29 30 31 32 33 34 35 36 37 38 39 40 41 42 43 44 45 46 47 48 49 50
000
ASUS41 KRLX 062010
RWRRLX
West Virginia Regional Weather Roundup
National Weather Service Charleston WV
300 PM EST FRI MAR 06 2015

Note: "fair" indicates few or no clouds below 12,000 feet with no
significant weather and/or obstructions to visibility.

WVZ003-062100-
Northern Panhandle of West Virginia

CITY           SKY/WX    TMP DP  RH WIND       PRES   REMARKS
WHEELING       SUNNY     22   9  57 VRB5      30.40F
$$

WVZ009-062100-
Northwest West Virginia

CITY           SKY/WX    TMP DP  RH WIND       PRES   REMARKS
PARKERSBURG    PTSUNNY   20  10  65 S6        30.49F
$$

WVZ006-062100-
Western West Virginia

CITY           SKY/WX    TMP DP  RH WIND       PRES   REMARKS
HUNTINGTON     MOSUNNY   25  14  63 CALM      30.46F
$$

WVZ015-062100-
West Central West Virginia

CITY           SKY/WX    TMP DP  RH WIND       PRES   REMARKS
CHARLESTON     MOSUNNY   26  14  60 W6        30.45F
$$

WVZ022-031-062100-
North Central West Virginia

CITY           SKY/WX    TMP DP  RH WIND       PRES   REMARKS
CLARKSBURG     PTSUNNY  N/A N/A N/A VRB5      30.42
MORGANTOWN     MOSUNNY   21   9  59 VRB5      30.42F
$$

WVZ025-035-042-045-062100-
Southern West Virginia

CITY           SKY/WX    TMP DP  RH WIND       PRES   REMARKS
BECKLEY        SUNNY     29  11  47 W6        30.30F
LOGAN            N/A     27  12  54 VRB3      30.36S
BLUEFIELD      MOSUNNY   31  16  54 VRB5      30.28F
LEWISBURG      SUNNY     27  16  62 S3        30.33F
$$

WVZ047-062100-
Northern Mountains of West Virginia

CITY           SKY/WX    TMP DP  RH WIND       PRES   REMARKS
ELKINS         SUNNY     24  14  65 NW9       30.34F
$$

WVZ052-062100-
Eastern Panhandle of West Virginia

CITY           SKY/WX    TMP DP  RH WIND       PRES   REMARKS
MARTINSBURG    SUNNY     27   1  32 CALM      30.46F
PETERSBURG     SUNNY     29   5  36 CALM      30.41F
$$



USA.gov is the U.S. government's official web portal to all federal, state and local government web resources and services.